Overview Statistics Trail Chart Weather Telemetry Raw packets
 

This is the latest recevied weather packets stored in our database for station/object DK9HI-WX. If no packets are shown the sender has not sent any weather packets the latest 10 day(s).

<< 1 2 3 4 >>
Time Temp. Humidity Pressure Rain* Wind** Luminosity Snow
1788638229 18.33° C 61% 1024 hPa - - - -
1788637629 18.33° C 62% 1023.9 hPa - - - -
1788637029 18.33° C 62% 1023.8 hPa - - - -
1788636429 18.33° C 63% 1023.7 hPa - - - -
1788635829 18.33° C 64% 1023.5 hPa - - - -
1788635229 18.33° C 63% 1023.4 hPa - - - -
1788634629 18.33° C 63% 1023.2 hPa - - - -
1788634029 18.89° C 63% 1023.2 hPa - - - -
1788633430 18.89° C 61% 1023 hPa - - - -
1788632829 18.89° C 61% 1022.8 hPa - - - -
1788632229 18.89° C 60% 1022.7 hPa - - - -
1788631629 18.89° C 61% 1022.4 hPa - - - -
1788631029 19.44° C 61% 1022.4 hPa - - - -
1788630429 19.44° C 60% 1022.4 hPa - - - -
1788629829 19.44° C 60% 1022.3 hPa - - - -
1788629229 19.44° C 60% 1022.2 hPa - - - -
1788628629 19.44° C 59% 1022 hPa - - - -
1788628029 20° C 60% 1022 hPa - - - -
1788627429 20° C 61% 1021.7 hPa - - - -
1788626829 20° C 64% 1021.6 hPa - - - -
1788626229 20° C 65% 1021.5 hPa - - - -
1788625629 20.56° C 65% 1021.3 hPa - - - -
1788625029 20.56° C 62% 1021.1 hPa - - - -
1788623829 20.56° C 62% 1020.8 hPa - - - -
1788623229 20.56° C 60% 1020.7 hPa - - - -

* Rain since midnight (hover to see other rain measurements)
** Current wind speed in m/s (hover to see current wind gust speed)